Regional Weather Roundup
Issued by NWS Newport/Morehead, NC

Current Version | Previous Version | Text Only | Print | Product List | Glossary On
Versions: 1 2 3 4 5 6 7 8 9 10 11 12 13 14 15 16 17 18 19 20 21 22 23 24 25 26 27 28 29 30 31 32 33 34 35 36 37 38 39 40 41 42 43 44 45 46 47 48 49 50
000
ASUS42 KMHX 010110
RWRMHX
WEATHER ROUNDUP FOR EASTERN NORTH CAROLINA
NATIONAL WEATHER SERVICE NEWPORT/MOREHEAD CITY NC
900 PM EDT THU JUL 31 2014

NOTE: "FAIR" INDICATES FEW OR NO CLOUDS BELOW 12,000 FEET
WITH NO SIGNIFICANT WEATHER AND/OR OBSTRUCTIONS TO VISIBILITY

NCZ015>017-031-032-045>047-102-103-010200-
NORTH COAST

CITY           SKY/WX    TMP DP  RH WIND       PRES   REMARKS
EDENTON        FAIR      76  64  67 SE7       30.15S
ELIZABETH CITY FAIR      75  64  68 SE5       30.16R
KITTY HAWK     FAIR      76  63  64 SE5       30.14S
MANTEO         NOT AVBL

$$

NCZ045>047-081-094-103-104-010200-
CENTRAL COAST

CITY           SKY/WX    TMP DP  RH WIND       PRES   REMARKS
FRISCO         FAIR      77  65  66 NE5       30.14R
SWANQUARTER      N/A     75 N/A N/A E5        30.12S

$$

NCZ095-097-098-100-101-010200-
SOUTHERN COAST

CITY           SKY/WX    TMP DP  RH WIND       PRES   REMARKS
BEAUFORT       FAIR      79  70  74 E6        30.12S
CEDAR ISLAND     N/A     79 N/A N/A E7G17     30.18S
JACKSONVILLE   FAIR      78  69  73 E9        30.12R
NEWPORT        NOT AVBL
PINEY ISLAND   FAIR      80  70  71 E10       30.13S
WILMINGTON     FAIR      80  69  69 E8        30.10S


$$

NCZ011>013-027>030-043-044-078>080-089-090>093-098-010200-
COASTAL PLAIN

CITY           SKY/WX    TMP DP  RH WIND       PRES   REMARKS
AHOSKIE        FAIR      73  69  86 CALM      30.14S
CLINTON        FAIR      76  69  79 CALM      30.13R
ELIZABETHTOWN  FAIR      77  68  73 CALM      30.11S
GOLDSBORO      FAIR      77  71  83 E5        30.11R
GREENVILLE     FAIR      79  68  69 SE3       30.15R
HAVELOCK       MOCLDY    76  68  76 E7        30.13S
KENANSVILLE    FAIR      73  69  87 CALM      30.13S
KINSTON        FAIR      77  66  69 E7        30.14R
NEW BERN       FAIR      79  65  62 CALM      30.15R
RICHLANDS      FAIR      75  66  73 NE7       30.13R
ROANOKE RAPIDS NOT AVBL
ROCKY MOUNT    FAIR      74  69  85 CALM      30.13S
WASHINGTON     FAIR      75  67  76 E3        30.14R
WHITEVILLE     FAIR      76  70  82 NE6       30.09S

$$

AMZ130-135-150-152-154-156-158-170-250-252-270-ANZ085-086-088-633-658-670-010200-
MARINE OBSERVATIONS

STATION/POSITION TIME  TEMP    WIND        PRES    WAVE   SWELL
                       AIR SEA DIR/SP/G            HT/PER HT/PER
                 (UTC) (F)     (DEG/KT/KT) (MB)    (FT/S) (FT/S)
CHESAPEAKE LIGHT NOT AVBL
BUOY 44014       0100   76 78  110/ 12/ 14 1020.8    2/ 7   2/ 7
DUCK             0100   77 78  120/ 12/ 14 1020.3
2E DUCK          0100                        N/A     3/ 7
OREGON INLET     0100   77 78   90/  5/ 10 1021.0
BUOY 44095       0100      78                N/A     3/ 7
20E OREGON INLET NOT AVBL
HATTERAS CG      0100   77 80   60/  6/  7 1021.0
DIAMOND BUOY     0100          VRB 12/ 16  1020.3    3/ 6   2/ 6
CAPE LOOKOUT     0000   80      90/ 15/ 15 1019.9
BEAUFORT LAB     0100   80 82  110/  8/ 11 1019.5
30 SE NEW RIVER  0000   81 81   90/ 17/ 19 1019.4
5 SE WRIGHTSVILL 0000   77 81   90/ 17/ 21   N/A
BUOY 41002       0017   80 81  120/  4/  6 1019.6    4/ 7   3/ 7
BUOY 41004       0100   83 83  130/ 12/ 16 1016.2    4/ 5   2/ 8

$$



USA.gov is the U.S. government's official web portal to all federal, state and local government web resources and services.